Simultaneous Nadir Overpasses (SNOs) Predictions

Prediction of SNOs between NOAA-19 and TERRA Satellite Orbit:

Table of predicted SNOs for the next 14.0 days since TLE Epoch: 5/29/2021
Index Date (NOAA-19) Time (NOAA-19) Lat,Lon (NOAA-19) SZA (NOAA-19 ) Date (TERRA) Time (TERRA) Lat,Lon (TERRA) SZA (TERRA ) Distance(km) Time Diff (sec)
1 05/30/2021 22:18:33 80.26,-121.58 60.06 05/30/2021 22:18:32 80.24,-121.44 60.06 3.26 1
2 06/02/2021 03:51:37 -80.25, -24.67 120.24 06/02/2021 03:52:13 -80.26, -24.67 120.22 1.11 36
3 06/02/2021 04:42:42 80.23, 142.83 59.77 06/02/2021 04:41:40 80.23, 142.66 59.72 3.17 62
4 06/04/2021 09:24:53 80.26, 71.92 59.49 06/04/2021 09:25:53 80.28, 72.07 59.54 3.39 60
5 06/04/2021 10:15:47 -80.25,-120.60 120.51 06/04/2021 10:15:21 -80.25,-120.58 120.52 0.38 26
6 06/06/2021 15:49:02 80.24, -23.74 59.26 06/06/2021 15:49:01 80.26, -23.87 59.26 3.23 1
7 06/08/2021 21:22:08 -80.28, 72.56 120.97 06/08/2021 21:22:43 -80.25, 72.58 120.98 2.84 35
8 06/08/2021 22:13:12 80.25,-119.77 59.05 06/08/2021 22:12:09 80.24,-119.83 59.01 1.38 63
9 06/11/2021 02:55:23 80.28, 169.23 58.85 06/11/2021 02:56:23 80.26, 169.21 58.86 2.87 60



Historial Predications of SNOs between NOAA-19 and TERRA
